Location: Bathsheba
(13.2167°N, 59.5167°W)
Time: 23:22:23
(UTC+00:00)

USA 234 - Pass Details

Date: 18 September 2020
Orbit: 1102 x 1106 km, 123.0° (Epoch: 16 October)

Event Time Altitude Azimuth Distance (km) Brightness Sun altitude
Rises 22:18:00 0° 37° (NE) 3,913 5.8 -6.0°
Reaches altitude 10° 22:20:28 10° 38° (NE) 2,956 5.2 -6.6°
Maximum altitude 22:27:01 87° 127° (SE) 1,107 3.3 -8.2°
Drops below altitude 10° 22:33:34 10° 216° (SW) 2,957 6.0 -9.8°
Sets 22:36:02 0° 217° (SW) 3,915 6.6 -10.4°
